Weather History for Guaymas, Mexico

Change the Weather History Date:

Sunday, September 15, 2013

  Actual Average Record
Temperature  
Mean Temperature 94 °F -  
Max Temperature 106 °F 91 °F 106 °F (2013)
Min Temperature 83 °F 72 °F 71 °F (2005)
Cooling Degree Days 30    
Growing Degree Days 44 (Base 50)    
Moisture  
Dew Point 72 °F    
Average Humidity 42    
Maximum Humidity 58    
Minimum Humidity 22    
Precipitation  
Precipitation 0.00 in - - ()
Sea Level Pressure  
Sea Level Pressure 29.56 in    
Wind  
Wind Speed 4 mph ()    
Max Wind Speed 20 mph    
Max Gust Speed -    
Visibility 9.6 miles    
Events      
Averages and records for this station are not official NWS values.
T = Trace of Precipitation, MM = Missing Value Source: Averaged Metar Reports

Daily Weather History Graph

Daily Weather History Graph

Search for Another Location

Airport:

Trip Planner

Search our weather history database for the weather conditions in past years. The results will help you decide how hot, cold, wet, or windy it might be!

Date:

Astronomy

Sep. 15, 2013 Rise Set
Actual Time 6:09 AM MST 6:28 PM MST
Civil Twilight 5:45 AM MST 6:51 PM MST
Nautical Twilight 5:18 AM MST 7:18 PM MST
Astronomical Twilight 4:50 AM MST 7:46 PM MST
Moon 3:43 PM MST (9/15) 2:08 AM MST (9/15)
Length of Visible Light 13h 05m
Length of Day
12h 19m
Waxing Gibbous, 83% of the Moon is Illuminated
Sep 15
Waxing Gibbous
Sep 19
Full
Sep 26
Last Quarter
Oct 4
New
Oct 11
First Quarter

Hourly Weather History & Observations

Time (MST) Temp. Heat Index Dew Point Humidity Pressure Visibility Wind Dir Wind Speed Gust Speed Precip Events Conditions
2:00 AM 86 °F - 70 °F 49% 29.59 in - North 2.2 mph - -  
5:00 AM 83 °F - 71 °F 58% 29.59 in - NNW 2.2 mph - -  
7:07 AM 86.0 °F 90.4 °F 69.8 °F 58% 29.56 in 10.0 mi Calm Calm - N/A   Clear
7:40 AM 89.6 °F 94.7 °F 69.8 °F 52% 29.57 in 10.0 mi Calm Calm - N/A   Clear
8:00 AM 91 °F - 66 °F 34% 29.62 in - WNW 2.2 mph - -  
8:41 AM 93.2 °F 98.8 °F 69.8 °F 46% 29.57 in 10.0 mi Calm Calm - N/A   Clear
9:43 AM 100.4 °F 106.3 °F 68.0 °F 35% 29.58 in 10.0 mi Calm Calm - N/A   Clear
10:43 AM 102.2 °F 110.0 °F 69.8 °F 35% 29.57 in 10.0 mi Calm Calm - N/A   Clear
11:00 AM 105 °F - 69 °F 22% 29.63 in - WSW 2.2 mph - -  
11:43 AM 102.2 °F 116.3 °F 75.2 °F 42% 29.55 in 10.0 mi South 8.1 mph - N/A   Clear
12:41 PM 98.6 °F 107.7 °F 71.6 °F 42% 29.55 in 10.0 mi SSW 15.0 mph - N/A   Clear
1:43 PM 100.4 °F 113.6 °F 75.2 °F 44% 29.53 in 10.0 mi South 13.8 mph - N/A   Clear
2:00 PM 106 °F - 71 °F 23% 29.58 in - SW 8.9 mph - -  
2:45 PM 98.6 °F 117.2 °F 78.8 °F 53% 29.52 in 10.0 mi South 16.1 mph - N/A   Partly Cloudy
3:51 PM 98.6 °F 114.4 °F 77.0 °F 50% 29.51 in 10.0 mi South 19.6 mph - N/A   Partly Cloudy
4:44 PM 98.6 °F 107.7 °F 71.6 °F 42% 29.51 in 10.0 mi South 11.5 mph - N/A   Partly Cloudy
5:00 PM 100 °F - 71 °F 30% 29.56 in - SW 8.9 mph - -  
5:40 PM 98.6 °F 109.2 °F 73.4 °F 44% 29.51 in 10.0 mi Calm Calm - N/A   Clear
6:47 PM 98.6 °F 109.2 °F 73.4 °F 44% 29.52 in 5.0 mi South 6.9 mph - N/A   Clear